This is the latest recevied weather packets stored in our database for station/object WV8BRW. If no packets are shown the sender has not sent any weather packets the latest 1 day(s).
| Time | Temp. | Humidity | Pressure | Rain* | Wind** | Luminosity | Snow |
|---|---|---|---|---|---|---|---|
| 1778025412 | 20.56° C | 57% | 1006.9 hPa | 0 mm | 0 m/s | 3 W/m² | - |
| 1778025109 | 20.56° C | 56% | 1006.9 hPa | 0 mm | 0 m/s | 5 W/m² | - |
| 1778024805 | 20.56° C | 56% | 1006.8 hPa | 0 mm | 0 m/s | 9 W/m² | - |
| 1778024503 | 20.56° C | 56% | 1007.2 hPa | 0 mm | 0 m/s | 17 W/m² | - |
| 1778024199 | 20.56° C | 58% | 1007.1 hPa | 0 mm | 0 m/s | 13 W/m² | - |
| 1778023897 | 20.56° C | 56% | 1007.3 hPa | 0 mm | 0 m/s | 10 W/m² | - |
| 1778023595 | 20.56° C | 56% | 1007.2 hPa | 0 mm | 0 m/s | 13 W/m² | - |
| 1778023292 | 20.56° C | 60% | 1007.3 hPa | 0 mm | 0.45 m/s, 345° | 15 W/m² | - |
| 1778022989 | 20.56° C | 59% | 1007.2 hPa | 0 mm | 0 m/s | 12 W/m² | - |
| 1778022687 | 21.11° C | 54% | 1007.3 hPa | 0 mm | 0 m/s | 13 W/m² | - |
| 1778022385 | 21.11° C | 54% | 1007.6 hPa | 0 mm | 0.45 m/s, 342° | 16 W/m² | - |
| 1778022081 | 21.11° C | 55% | 1007.3 hPa | 0 mm | 0.89 m/s, 337° | 10 W/m² | - |
| 1778021778 | 21.67° C | 55% | 1007.5 hPa | 0 mm | 0.45 m/s, 339° | 15 W/m² | - |
| 1778021474 | 21.67° C | 53% | 1007.4 hPa | 0 mm | 0 m/s | 18 W/m² | - |
| 1778021171 | 21.67° C | 52% | 1007.5 hPa | 0 mm | 0.89 m/s, 350° | 25 W/m² | - |
| 1778020868 | 21.67° C | 51% | 1007.3 hPa | 0 mm | 0.45 m/s, 345° | 29 W/m² | - |
| 1778020565 | 22.22° C | 51% | 1007.2 hPa | 0 mm | 0.45 m/s, 358° | 38 W/m² | - |
| 1778020261 | 22.22° C | 50% | 1007.4 hPa | 0 mm | 0.89 m/s, 327° | 37 W/m² | - |
| 1778019958 | 22.22° C | 52% | 1007.2 hPa | 0 mm | 0.45 m/s, 341° | 45 W/m² | - |
| 1778019654 | 22.22° C | 53% | 1007.4 hPa | 0 mm | 0 m/s | 54 W/m² | - |
| 1778019351 | 22.78° C | 54% | 1007.3 hPa | 0 mm | 0.45 m/s, 355° | 76 W/m² | - |
| 1778019047 | 22.78° C | 59% | 1007.3 hPa | 0 mm | 0.45 m/s, 321° | 100 W/m² | - |
| 1778018745 | 22.78° C | 57% | 1007.4 hPa | 0 mm | 0.45 m/s, 342° | 119 W/m² | - |
| 1778018443 | 22.78° C | 56% | 1007.2 hPa | 0 mm | 0.89 m/s, 354° | 91 W/m² | - |
| 1778018141 | 22.78° C | 54% | 1007.2 hPa | 0 mm | 0.45 m/s, 341° | 107 W/m² | - |
* Rain latest hour (hover to see other rain measurements)
** Current wind speed in m/s (hover to see current wind gust speed)